WAT866 LPPR-LPPT

Flight info

Callsign WAT866
Flight time 0h 41m
Altitude 23000
Route MANIK DCT ABRIL DCT XAMAX
Aircraft A306/H-SDE3FGHIRWY/LB1

Departure

Time 2026-05-07 16:13
Airport Francisco de Sá Carneiro Airport (LPPR)

Arrival

Time 2026-05-07 16:54
Airport Lisbon Humberto Delgado Airport (LPPT)
Time Latitude Longitude Altitude Speed Heading
2026-05-07 15:50 41.24188 -8.67369 243 ft 0 kts 78°
2026-05-07 16:00 41.24188 -8.67370 243 ft 0 kts 78°
2026-05-07 16:05 41.24184 -8.67396 243 ft 4 kts 79°
2026-05-07 16:06 41.24179 -8.67432 243 ft 4 kts 82°
2026-05-07 16:06 41.24176 -8.67467 243 ft 4 kts 91°
2026-05-07 16:06 41.24180 -8.67500 243 ft 4 kts 120°
2026-05-07 16:06 41.24185 -8.67511 243 ft 1 kts 137°
2026-05-07 16:10 41.24182 -8.67509 243 ft 2 kts 143°
2026-05-07 16:10 41.24155 -8.67505 243 ft 7 kts 187°
2026-05-07 16:10 41.24087 -8.67529 243 ft 12 kts 189°
2026-05-07 16:11 41.24005 -8.67522 243 ft 11 kts 170°
2026-05-07 16:11 41.23939 -8.67539 243 ft 9 kts 228°
2026-05-07 16:11 41.23924 -8.67628 239 ft 11 kts 266°
2026-05-07 16:11 41.23904 -8.67723 238 ft 9 kts 256°
2026-05-07 16:12 41.23893 -8.67786 233 ft 8 kts 256°
2026-05-07 16:12 41.23885 -8.67864 230 ft 7 kts 285°
2026-05-07 16:12 41.23949 -8.67899 228 ft 24 kts 346°
2026-05-07 16:12 41.24356 -8.68004 220 ft 93 kts 348°
2026-05-07 16:13 41.25198 -8.68231 187 ft 153 kts 349°
2026-05-07 16:13 41.26377 -8.68508 509 ft 183 kts 350°
2026-05-07 16:13 41.27674 -8.68794 1237 ft 194 kts 346°
2026-05-07 16:13 41.29046 -8.69147 2048 ft 211 kts 346°
2026-05-07 16:14 41.30616 -8.69552 2302 ft 247 kts 346°
2026-05-07 16:14 41.32313 -8.69951 3170 ft 251 kts 349°
2026-05-07 16:14 41.33999 -8.70651 3894 ft 264 kts 328°
2026-05-07 16:14 41.35396 -8.72294 4603 ft 268 kts 303°
2026-05-07 16:15 41.36192 -8.74465 5680 ft 263 kts 279°
2026-05-07 16:15 41.36101 -8.76891 6401 ft 266 kts 247°
2026-05-07 16:15 41.35064 -8.78871 7280 ft 262 kts 214°
2026-05-07 16:15 41.33383 -8.79757 8150 ft 263 kts 186°
2026-05-07 16:16 41.31554 -8.79579 9066 ft 267 kts 169°
2026-05-07 16:16 41.29731 -8.79027 9970 ft 270 kts 167°
2026-05-07 16:16 41.27861 -8.78429 10540 ft 285 kts 167°
2026-05-07 16:16 41.25860 -8.77813 10857 ft 305 kts 167°
2026-05-07 16:17 41.23721 -8.77178 11162 ft 324 kts 168°
2026-05-07 16:17 41.21456 -8.76518 11462 ft 342 kts 168°
2026-05-07 16:17 41.19080 -8.75834 11738 ft 358 kts 168°
2026-05-07 16:17 41.16600 -8.75123 12147 ft 368 kts 168°
2026-05-07 16:18 41.14064 -8.74397 12718 ft 374 kts 168°
2026-05-07 16:18 41.11505 -8.73666 13311 ft 379 kts 168°
2026-05-07 16:18 41.08945 -8.72934 13892 ft 383 kts 168°
2026-05-07 16:18 41.06320 -8.72184 14429 ft 388 kts 168°
2026-05-07 16:19 41.03666 -8.71424 14978 ft 392 kts 168°
2026-05-07 16:19 41.00982 -8.70658 15534 ft 396 kts 168°
2026-05-07 16:19 40.98259 -8.69881 16100 ft 401 kts 168°
2026-05-07 16:19 40.95520 -8.69111 16653 ft 405 kts 169°
2026-05-07 16:20 40.92742 -8.68352 17190 ft 409 kts 169°
2026-05-07 16:20 40.89982 -8.67565 17714 ft 413 kts 168°
2026-05-07 16:20 40.87116 -8.66762 18221 ft 417 kts 169°
2026-05-07 16:20 40.84267 -8.65947 18655 ft 421 kts 169°
2026-05-07 16:21 40.81426 -8.65151 19079 ft 424 kts 170°
2026-05-07 16:21 40.78499 -8.64570 19511 ft 427 kts 174°
2026-05-07 16:21 40.75541 -8.64083 19930 ft 430 kts 175°
2026-05-07 16:21 40.72557 -8.63628 20351 ft 433 kts 175°
2026-05-07 16:22 40.69556 -8.63184 20759 ft 436 kts 175°
2026-05-07 16:22 40.66512 -8.62740 21179 ft 439 kts 175°
2026-05-07 16:22 40.63462 -8.62296 21590 ft 442 kts 175°
2026-05-07 16:22 40.60398 -8.61852 22010 ft 445 kts 176°
2026-05-07 16:23 40.57307 -8.61404 22412 ft 447 kts 176°
2026-05-07 16:23 40.54205 -8.60956 22782 ft 451 kts 176°
2026-05-07 16:23 40.51078 -8.60504 22892 ft 452 kts 176°
2026-05-07 16:23 40.47955 -8.60054 22895 ft 451 kts 176°
2026-05-07 16:24 40.44837 -8.59604 22890 ft 451 kts 176°
2026-05-07 16:24 40.41715 -8.59155 22901 ft 451 kts 176°
2026-05-07 16:24 40.38593 -8.58706 22906 ft 451 kts 176°
2026-05-07 16:24 40.35517 -8.58264 22905 ft 450 kts 176°
2026-05-07 16:25 40.32400 -8.57816 22896 ft 450 kts 176°
2026-05-07 16:25 40.29289 -8.57370 22906 ft 450 kts 176°
2026-05-07 16:25 40.26175 -8.56924 22892 ft 450 kts 176°
2026-05-07 16:25 40.23067 -8.56478 22906 ft 450 kts 176°
2026-05-07 16:26 40.19958 -8.56033 22888 ft 449 kts 176°
2026-05-07 16:26 40.16851 -8.55590 22887 ft 449 kts 176°
2026-05-07 16:26 40.13738 -8.55146 22885 ft 449 kts 176°
2026-05-07 16:26 40.10638 -8.54703 22903 ft 449 kts 176°
2026-05-07 16:27 40.07531 -8.54260 22900 ft 448 kts 176°
2026-05-07 16:27 40.04431 -8.53817 22901 ft 448 kts 176°
2026-05-07 16:27 40.01324 -8.53462 22897 ft 448 kts 178°
2026-05-07 16:27 39.98209 -8.53198 22889 ft 447 kts 179°
2026-05-07 16:28 39.95105 -8.52947 22893 ft 447 kts 179°
2026-05-07 16:28 39.92000 -8.52695 22908 ft 447 kts 179°
2026-05-07 16:28 39.88893 -8.52440 22908 ft 446 kts 179°
2026-05-07 16:28 39.85802 -8.52186 22894 ft 441 kts 179°
2026-05-07 16:29 39.82814 -8.51934 22881 ft 420 kts 179°
2026-05-07 16:29 39.79966 -8.51696 22881 ft 401 kts 179°
2026-05-07 16:29 39.77234 -8.51616 22874 ft 383 kts 187°
2026-05-07 16:29 39.74753 -8.52371 22885 ft 365 kts 205°
2026-05-07 16:30 39.72490 -8.53919 22902 ft 362 kts 212°
2026-05-07 16:30 39.70335 -8.55621 22892 ft 363 kts 213°
2026-05-07 16:30 39.68181 -8.57344 22905 ft 364 kts 213°
2026-05-07 16:30 39.66026 -8.59060 22899 ft 364 kts 213°
2026-05-07 16:31 39.63892 -8.60751 22889 ft 364 kts 213°
2026-05-07 16:31 39.61728 -8.62458 22901 ft 364 kts 213°
2026-05-07 16:31 39.59565 -8.64161 22893 ft 364 kts 213°
2026-05-07 16:31 39.57405 -8.65857 22902 ft 363 kts 213°
2026-05-07 16:32 39.55240 -8.67557 22903 ft 363 kts 213°
2026-05-07 16:32 39.53082 -8.69249 22897 ft 363 kts 213°
2026-05-07 16:32 39.50922 -8.70942 22900 ft 363 kts 213°
2026-05-07 16:32 39.48764 -8.72631 22883 ft 362 kts 212°
2026-05-07 16:33 39.46611 -8.74315 22901 ft 362 kts 212°
2026-05-07 16:33 39.44453 -8.76002 22899 ft 362 kts 212°
2026-05-07 16:33 39.42299 -8.77683 22903 ft 362 kts 212°
2026-05-07 16:33 39.40187 -8.79445 22884 ft 360 kts 219°
2026-05-07 16:34 39.38385 -8.81680 22908 ft 359 kts 228°
2026-05-07 16:34 39.36726 -8.84093 22913 ft 359 kts 229°
2026-05-07 16:34 39.35088 -8.86525 22911 ft 359 kts 229°
2026-05-07 16:34 39.33449 -8.88954 22907 ft 359 kts 229°
2026-05-07 16:35 39.31806 -8.91379 22908 ft 359 kts 229°
2026-05-07 16:35 39.30159 -8.93802 22914 ft 359 kts 229°
2026-05-07 16:35 39.28514 -8.96218 22907 ft 359 kts 229°
2026-05-07 16:35 39.26886 -8.98604 22735 ft 357 kts 229°
2026-05-07 16:36 39.25203 -9.01069 22539 ft 371 kts 229°
2026-05-07 16:36 39.23473 -9.03599 22241 ft 390 kts 229°
2026-05-07 16:36 39.21654 -9.06257 21725 ft 398 kts 229°
2026-05-07 16:36 39.19827 -9.08923 21191 ft 394 kts 229°
2026-05-07 16:37 39.18025 -9.11550 20719 ft 389 kts 229°
2026-05-07 16:37 39.16238 -9.14153 20237 ft 386 kts 229°
2026-05-07 16:37 39.14464 -9.16737 19774 ft 385 kts 229°
2026-05-07 16:37 39.12692 -9.19315 19285 ft 384 kts 229°
2026-05-07 16:38 39.10927 -9.21881 18802 ft 381 kts 229°
2026-05-07 16:38 39.09176 -9.24424 18316 ft 379 kts 229°
2026-05-07 16:38 39.07432 -9.26956 17840 ft 374 kts 228°
2026-05-07 16:38 39.05714 -9.29447 17347 ft 371 kts 228°
2026-05-07 16:39 39.04003 -9.31927 16890 ft 370 kts 228°
2026-05-07 16:39 39.02293 -9.34402 16426 ft 369 kts 228°
2026-05-07 16:39 39.00588 -9.36869 15694 ft 370 kts 228°
2026-05-07 16:39 38.98857 -9.39370 14808 ft 377 kts 228°
2026-05-07 16:40 38.98266 -9.40224 14544 ft 378 kts 228°
2026-05-07 16:40 38.95356 -9.44425 13361 ft 377 kts 228°
2026-05-07 16:40 38.93639 -9.46901 12691 ft 374 kts 228°
2026-05-07 16:40 38.91914 -9.49385 12035 ft 371 kts 228°
2026-05-07 16:41 38.90207 -9.51844 11378 ft 368 kts 228°
2026-05-07 16:41 38.88362 -9.54051 10937 ft 359 kts 213°
2026-05-07 16:41 38.86081 -9.55175 10668 ft 348 kts 189°
2026-05-07 16:41 38.83701 -9.55275 10458 ft 336 kts 179°
2026-05-07 16:42 38.81409 -9.55182 10255 ft 324 kts 179°
2026-05-07 16:42 38.79198 -9.55124 10055 ft 313 kts 180°
2026-05-07 16:42 38.77060 -9.55107 9882 ft 302 kts 181°
2026-05-07 16:42 38.74994 -9.55115 9708 ft 292 kts 181°
2026-05-07 16:43 38.72994 -9.55139 9543 ft 282 kts 181°
2026-05-07 16:43 38.71053 -9.55169 9269 ft 276 kts 182°
2026-05-07 16:43 38.69151 -9.55205 8998 ft 271 kts 182°
2026-05-07 16:43 38.67277 -9.55243 8730 ft 267 kts 182°
2026-05-07 16:44 38.65443 -9.55282 8506 ft 260 kts 181°
2026-05-07 16:44 38.63663 -9.55319 8310 ft 253 kts 181°
2026-05-07 16:44 38.61912 -9.55356 8053 ft 249 kts 181°
2026-05-07 16:44 38.60197 -9.55389 7923 ft 245 kts 180°
2026-05-07 16:45 38.58495 -9.55186 7920 ft 246 kts 171°
2026-05-07 16:45 38.56810 -9.54785 7918 ft 246 kts 169°
2026-05-07 16:45 38.55132 -9.54352 7917 ft 246 kts 169°
2026-05-07 16:45 38.53449 -9.53918 7919 ft 246 kts 169°
2026-05-07 16:46 38.51764 -9.53486 7919 ft 247 kts 169°
2026-05-07 16:46 38.50130 -9.52874 7914 ft 245 kts 155°
2026-05-07 16:46 38.48740 -9.51645 7910 ft 244 kts 133°
2026-05-07 16:46 38.47914 -9.49811 7896 ft 243 kts 104°
2026-05-07 16:47 38.47878 -9.47683 7646 ft 242 kts 73°
2026-05-07 16:47 38.48607 -9.45743 7265 ft 244 kts 59°
2026-05-07 16:47 38.49512 -9.43904 6930 ft 245 kts 57°
2026-05-07 16:47 38.50427 -9.42068 6616 ft 244 kts 58°
2026-05-07 16:48 38.51327 -9.40234 6323 ft 243 kts 58°
2026-05-07 16:48 38.52217 -9.38397 6009 ft 242 kts 58°
2026-05-07 16:48 38.53097 -9.36566 5702 ft 242 kts 58°
2026-05-07 16:48 38.53970 -9.34740 5401 ft 240 kts 57°
2026-05-07 16:49 38.54838 -9.32920 5094 ft 240 kts 57°
2026-05-07 16:49 38.55412 -9.31715 4906 ft 239 kts 57°
2026-05-07 16:49 38.56554 -9.29286 4523 ft 237 kts 57°
2026-05-07 16:49 38.57396 -9.27478 4234 ft 236 kts 57°
2026-05-07 16:50 38.58234 -9.25682 3966 ft 234 kts 56°
2026-05-07 16:50 38.59195 -9.24045 3943 ft 228 kts 40°
2026-05-07 16:50 38.60488 -9.22933 3798 ft 225 kts 22°
2026-05-07 16:50 38.61940 -9.22177 3520 ft 223 kts 18°
2026-05-07 16:51 38.63383 -9.21470 3189 ft 221 kts 18°
2026-05-07 16:51 38.66244 -9.19946 2560 ft 218 kts 19°
2026-05-07 16:51 38.66718 -9.19693 2467 ft 218 kts 19°
2026-05-07 16:52 38.68084 -9.18960 2169 ft 206 kts 18°
2026-05-07 16:52 38.68526 -9.18726 2070 ft 202 kts 18°
2026-05-07 16:52 38.72034 -9.16856 1344 ft 165 kts 17°
2026-05-07 16:53 38.73059 -9.16300 1135 ft 154 kts 18°
2026-05-07 16:53 38.73991 -9.15809 936 ft 141 kts 17°
2026-05-07 16:53 38.74896 -9.15323 762 ft 142 kts 16°
2026-05-07 16:53 38.75816 -9.14828 581 ft 146 kts 16°
2026-05-07 16:54 38.76770 -9.14321 389 ft 148 kts 17°
2026-05-07 16:54 38.77647 -9.13866 370 ft 117 kts 24°
2026-05-07 16:54 38.78231 -9.13523 361 ft 58 kts 34°
2026-05-07 16:54 38.78373 -9.13302 364 ft 16 kts 103°
2026-05-07 16:55 38.78290 -9.13281 363 ft 13 kts 199°
2026-05-07 16:55 38.78211 -9.13320 362 ft 12 kts 202°
2026-05-07 16:55 38.78138 -9.13359 362 ft 11 kts 202°
2026-05-07 16:55 38.78070 -9.13396 364 ft 11 kts 203°
2026-05-07 16:56 38.77986 -9.13442 367 ft 15 kts 203°
2026-05-07 16:56 38.77878 -9.13502 364 ft 19 kts 202°
2026-05-07 16:56 38.77622 -9.13590 362 ft 18 kts 169°
2026-05-07 16:57 38.77502 -9.13558 362 ft 17 kts 169°
2026-05-07 16:57 38.77388 -9.13527 361 ft 16 kts 168°
2026-05-07 16:57 38.77283 -9.13527 359 ft 15 kts 195°
2026-05-07 16:57 38.77200 -9.13569 363 ft 11 kts 203°
2026-05-07 16:58 38.77184 -9.13578 362 ft 0 kts 204°
2026-05-07 16:58 38.77180 -9.13580 361 ft 1 kts 204°
2026-05-07 16:58 38.77174 -9.13584 363 ft 1 kts 204°
2026-05-07 16:59 38.77166 -9.13588 361 ft 1 kts 204°
2026-05-07 16:59 38.77157 -9.13593 360 ft 1 kts 202°
2026-05-07 16:59 38.77148 -9.13598 358 ft 1 kts 202°
2026-05-07 16:59 38.77141 -9.13602 359 ft 1 kts 202°
2026-05-07 17:00 38.77139 -9.13602 359 ft 0 kts 202°
2026-05-07 17:00 38.77140 -9.13602 359 ft 0 kts 202°